[[{"header":{"parameterUnit":"m.s-1","parameterCategory":1,"la1":30.2991,"la2":30.254,"lo1":-89.0895,"lo2":-89.0444,"dy":0.0017,"dx":0.0017,"nx":28,"ny":28,"refTime":"2024-08-14T21:00:00:Z","depth":0,"parameterNumber":2,"parameterNumberName":"U-component_of_WINDS"},"data":[0,0,0,0,0,0,0,0,0,0,0,0,0,0,0,0,0,0,0,0,0,0,0,0,0,0,0,0,0,0,0,0,0,0,0,0,0,0,0,0,0,0,0,0,0,0,0,0,0,0,0,0,0,0,0,0,0,0,0.0387,0.0387,0,0.0394,0.0394,0.0394,0.0382,0.0382,0.0381,0.0381,0.039,0.0391,0.0392,0,0,0,0,0,0,0,0,0,0,0,0,0,0.0364,0.0365,0.0387,0.0387,0.0387,0.0394,0.0394,0.0394,0.0382,0.0382,0.0381,0.0381,0.039,0.0391,0.0392,0,0,0,0,0,0,0,0,0,0,0,0,0,0.0373,0.0365,0.0387,0.0382,0.0381,0.0394,0.0394,0.0394,0.0382,0.0382,0.0381,0.038,0.039,0.0391,0.0392,0.041,0,0,0.0395,0.0395,0,0,0,0,0,0,0,0,0.0373,0.0374,0.0383,0.0382,0.0382,0.0386,0.039,0.04,0.0382,0.0382,0.0381,0.038,0.039,0.0391,0.0394,0.0411,0.0411,0.0395,0.0396,0.0396,0.0396,0,0,0,0,0,0,0,0.0372,0.0374,0.039,0.0383,0.0382,0.038,0.038,0.0392,0.0389,0.0382,0.0381,0.0382,0.039,0.0393,0.0394,0.0411,0.0395,0.0396,0.0396,0.0397,0.0443,0.0444,0,0,0,0,0,0,0.0372,0.0373,0.039,0.039,0.0376,0.0381,0.0381,0.0386,0.0389,0.0389,0.0383,0.0381,0.0391,0.0393,0.0394,0.0416,0.0396,0.0397,0.0397,0.0443,0.0443,0.0444,0,0,0,0,0,0,0.0371,0.0373,0.0389,0.0381,0.0383,0.0382,0.0387,0.0386,0.0389,0.039,0.0389,0.0386,0.0391,0.0393,0.0406,0.0416,0.0397,0.0398,0.0442,0.0443,0.0444,0.0459,0,0,0,0,0,0,0.0371,0.0373,0.038,0.0382,0.0384,0.0401,0.0387,0.0387,0.0391,0.0389,0.0393,0.0393,0.039,0.0405,0.0407,0.0417,0.0399,0.0441,0.0442,0.0444,0.0458,0.046,0.0463,0,0,0,0,0,0.037,0.0385,0.0381,0.0383,0.0392,0.0402,0.0403,0.0399,0.0391,0.0399,0.0398,0.0393,0.0414,0.0406,0.0409,0.0419,0.044,0.0442,0.0443,0.0457,0.046,0.0463,0,0,0,0,0,0,0.0386,0.0385,0.038,0.0396,0.0399,0.04,0.0409,0.0403,0.0409,0.0407,0.0403,0.0404,0.0418,0.042,0.0411,0.0436,0.0426,0.0428,0.0435,0.0438,0.0441,0.0441,0.04,0,0,0,0,0,0.0391,0.0399,0.0398,0.0412,0.0413,0.041,0.0414,0.0411,0.0414,0.0416,0.0417,0.042,0.0428,0.0433,0.044,0.0457,0.0458,0.0465,0.0468,0.047,0.0472,0.0481,0.0484,0.0449,0.0449,0.0449,0,0,0.0403,0.0403,0.0408,0.0415,0.0417,0.0424,0.0412,0.0421,0.0427,0.0417,0.043,0.0431,0.0434,0.045,0.0457,0.0451,0.0482,0.0472,0.0474,0.0475,0.0483,0.0486,0.0489,0.045,0.045,0.045,0,0,0.0428,0.0428,0.044,0.0441,0.0443,0.0441,0.0444,0.0445,0.0445,0.0457,0.045,0.0457,0.047,0.0472,0.0476,0.0499,0.0494,0.0501,0.0515,0.0524,0.0527,0.0529,0.0537,0.0541,0.0503,0.0503,0.0503,0,0.0442,0.0453,0.0447,0.0456,0.0459,0.0449,0.046,0.0462,0.0467,0.047,0.0464,0.0479,0.0481,0.0496,0.0502,0.0504,0.0508,0.0502,0.0526,0.0529,0.0531,0.0539,0.0542,0.0504,0.0504,0.0504,0.0504,0,0.047,0.0478,0.0487,0.049,0.0494,0.0505,0.05,0.0505,0.05,0.0499,0.0511,0.0512,0.0519,0.0522,0.0519,0.0537,0.0534,0.0527,0.0517,0.0535,0.0543,0.0546,0.0506,0.0505,0.0505,0.0505,0,0,0.0507,0.0505,0.0509,0.051,0.0511,0.0517,0.0526,0.0532,0.0536,0.0539,0.0547,0.0557,0.055,0.0554,0.055,0.0558,0.0576,0.055,0.055,0.0555,0.0596,0.0602,0.0605,0.0572,0.0572,0.0573,0.0596,0,0.0532,0.0548,0.0542,0.0558,0.0565,0.0555,0.0563,0.0564,0.0563,0.0568,0.0567,0.0574,0.0565,0.0566,0.0573,0.0572,0.0584,0.057,0.058,0.058,0.058,0.0609,0.0616,0.0637,0.0599,0.0599,0.0599,0,0.0564,0.0566,0.0583,0.0581,0.0584,0.0592,0.0595,0.0601,0.0602,0.06,0.0603,0.0597,0.0607,0.0595,0.0608,0.0599,0.0602,0.0602,0.0603,0.0604,0.0592,0.0612,0.0644,0.0647,0.0604,0.0604,0.0603,0,0.0589,0.0597,0.0608,0.0609,0.0608,0.0613,0.0613,0.0613,0.0616,0.0619,0.0621,0.0626,0.0629,0.0633,0.0628,0.062,0.0642,0.063,0.0641,0.0641,0.0647,0.0647,0.0681,0.0648,0.0648,0.0648,0.0648,0,0.0618,0.0629,0.0619,0.0626,0.0638,0.063,0.0642,0.0641,0.0641,0.0647,0.0638,0.0645,0.0638,0.0644,0.0641,0.0652,0.0653,0.0652,0.0651,0.0653,0.0654,0.0656,0.0655,0.0649,0.0648,0.0648,0.0648,0,0.065,0.0644,0.0655,0.0651,0.0651,0.0659,0.0657,0.0663,0.066,0.0668,0.067,0.0665,0.0671,0.0666,0.0673,0.0671,0.0685,0.0682,0.0685,0.0684,0.0695,0.0695,0.0733,0.0737,0.0701,0.0701,0.0702,0,0.0669,0.0677,0.0673,0.0676,0.0676,0.0682,0.0684,0.0677,0.068,0.0681,0.0687,0.0692,0.0696,0.0706,0.0704,0.0708,0.0705,0.0718,0.0706,0.0708,0.0706,0.0706,0.0707,0.0721,0.0722,0.0722,0.0722,0,0.0704,0.07,0.0703,0.0706,0.0709,0.0711,0.0712,0.0715,0.0707,0.0711,0.0716,0.0719,0.0725,0.073,0.0733,0.0733,0.0727,0.0726,0.0728,0.0731,0.0733,0.0732,0.0692,0.0725,0.0725,0.0725,0.0725,0.0724,0.073,0.0736,0.0734,0.0738,0.0738,0.0739,0.0744,0.0741,0.0745,0.0748,0.0743,0.075,0.075,0.0753,0.0754,0.0759,0.0754,0.0758,0.0759,0.0761,0.0763,0.0731,0.076,0.076,0.076,0.076,0.076,0,0.0765,0.0762,0.0766,0.0767,0.077,0.0762,0.0762,0.0766,0.0771,0.0771,0.0774,0.078,0.0785,0.0782,0.0786,0.079,0.0787,0.0792,0.0792,0.0792,0.0767,0.0764,0.0794,0.0794,0.0794,0.0794,0.0794,0.0794,0.0783,0.0793,0.0788,0.0798,0.0795,0.0801,0.0802,0.0803,0.0802,0.0809,0.0812,0.081,0.0808,0.0812,0.0815,0.0814,0.0816,0.0822,0.082,0.0797,0.0794,0.0791,0.0788,0.0822,0.0822,0.0845,0.0845,0.0845]},{"header":{"parameterUnit":"m.s-1","parameterCategory":1,"la1":30.2991,"la2":30.254,"lo1":-89.0895,"lo2":-89.0444,"dy":0.0017,"dx":0.0017,"nx":28,"ny":28,"refTime":"2024-08-14T21:00:00:Z","depth":0,"parameterNumber":3,"parameterNumberName":"V-component_of_WINDS"},"data":[0,0,0,0,0,0,0,0,0,0,0,0,0,0,0,0,0,0,0,0,0,0,0,0,0,0,0,0,0,0,0,0,0,0,0,0,0,0,0,0,0,0,0,0,0,0,0,0,0,0,0,0,0,0,0,0,0,0,1.8227,1.8228,0,1.8257,1.8257,1.8257,1.83,1.8301,1.8301,1.8302,1.8333,1.8333,1.8333,0,0,0,0,0,0,0,0,0,0,0,0,0,1.8207,1.8207,1.8227,1.8228,1.8228,1.8257,1.8257,1.8257,1.83,1.8301,1.8301,1.8302,1.8333,1.8333,1.8333,0,0,0,0,0,0,0,0,0,0,0,0,0,1.8224,1.8207,1.8227,1.8252,1.8255,1.8257,1.8257,1.8258,1.83,1.8301,1.8302,1.8303,1.8333,1.8333,1.8333,1.8312,0,0,1.8334,1.8334,0,0,0,0,0,0,0,0,1.8223,1.8225,1.8248,1.8251,1.8254,1.8276,1.8261,1.8276,1.8299,1.8283,1.8302,1.8303,1.8313,1.8315,1.8318,1.8314,1.8315,1.8334,1.8334,1.8334,1.8334,0,0,0,0,0,0,0,1.8222,1.8224,1.8239,1.8249,1.8252,1.8262,1.8266,1.8264,1.8291,1.8284,1.8287,1.829,1.8315,1.8318,1.8319,1.8316,1.8334,1.8334,1.8334,1.8334,1.8293,1.8292,0,0,0,0,0,0,1.8217,1.8222,1.8238,1.824,1.8241,1.8262,1.8266,1.8267,1.8291,1.8296,1.8289,1.8292,1.8317,1.8319,1.832,1.8296,1.8334,1.8334,1.8334,1.8295,1.8293,1.8292,0,0,0,0,0,0,1.8216,1.8218,1.8237,1.8232,1.8235,1.8261,1.8262,1.8267,1.8271,1.8295,1.83,1.8287,1.8318,1.832,1.8313,1.8297,1.8334,1.8334,1.8296,1.8294,1.8293,1.8247,0,0,0,0,0,0,1.8216,1.8217,1.821,1.8231,1.8235,1.8229,1.8262,1.8267,1.8271,1.8275,1.8295,1.8299,1.8319,1.8313,1.8314,1.8298,1.8335,1.8298,1.8295,1.8293,1.825,1.8244,1.8239,0,0,0,0,0,1.8215,1.8197,1.8209,1.8211,1.8227,1.8229,1.8231,1.8253,1.8269,1.8262,1.8277,1.8299,1.8299,1.8312,1.8313,1.8298,1.8299,1.8296,1.8293,1.8253,1.8246,1.8239,0,0,0,0,0,0,1.8173,1.82,1.8214,1.8203,1.8213,1.8236,1.8227,1.8245,1.8251,1.8254,1.8283,1.8287,1.8276,1.8287,1.83,1.8278,1.8302,1.8299,1.8271,1.8264,1.8259,1.8256,1.8335,0,0,0,0,0,1.8163,1.8162,1.8186,1.8173,1.8178,1.8201,1.8203,1.8219,1.8231,1.8236,1.8251,1.8261,1.8264,1.8265,1.8269,1.8253,1.8256,1.8242,1.8237,1.8232,1.8229,1.8219,1.8212,1.8283,1.8283,1.8283,0,0,1.8141,1.8156,1.8154,1.8165,1.8175,1.8173,1.8205,1.8202,1.82,1.8235,1.8229,1.8241,1.8254,1.8242,1.8238,1.8251,1.821,1.8228,1.8224,1.8224,1.8216,1.8209,1.8203,1.8281,1.8282,1.8282,0,0,1.8101,1.8112,1.8102,1.8111,1.8125,1.814,1.8138,1.8157,1.8166,1.816,1.8186,1.8185,1.8189,1.8197,1.8201,1.8162,1.8181,1.8162,1.8132,1.8122,1.8117,1.8112,1.8096,1.809,1.816,1.816,1.8159,0,1.8072,1.807,1.8095,1.8089,1.8093,1.8124,1.8113,1.8121,1.8135,1.8137,1.8151,1.8155,1.8167,1.8156,1.8146,1.815,1.8146,1.816,1.8115,1.8111,1.8107,1.8092,1.8086,1.8157,1.8157,1.8158,1.8158,0,1.8033,1.8031,1.8022,1.8034,1.8036,1.8029,1.8051,1.8051,1.8067,1.8081,1.8074,1.8089,1.8095,1.8094,1.811,1.8085,1.8092,1.811,1.8135,1.8097,1.8083,1.8078,1.8153,1.8154,1.8155,1.8156,0,0,1.7967,1.7992,1.7988,1.7993,1.801,1.8009,1.8002,1.8008,1.8006,1.8015,1.8009,1.8011,1.8027,1.8032,1.805,1.8041,1.8006,1.8061,1.8061,1.8048,1.7977,1.7961,1.7954,1.8019,1.8018,1.8018,1.7975,0,1.7929,1.7918,1.7939,1.7923,1.792,1.7949,1.7943,1.7952,1.7965,1.7964,1.7979,1.7979,1.8002,1.8005,1.7998,1.8012,1.7992,1.8015,1.8013,1.8012,1.8007,1.7948,1.7932,1.7891,1.797,1.7969,1.7968,0,1.7882,1.7887,1.787,1.7887,1.7887,1.788,1.7886,1.7886,1.7897,1.7906,1.7911,1.7931,1.7924,1.7949,1.7939,1.7955,1.7955,1.7962,1.7961,1.796,1.7987,1.7944,1.7879,1.7872,1.7961,1.7961,1.7962,0,1.7833,1.7836,1.7826,1.783,1.7849,1.7844,1.7851,1.7863,1.7865,1.787,1.7871,1.7875,1.7877,1.788,1.79,1.7916,1.7887,1.7914,1.7894,1.7893,1.7886,1.7886,1.7818,1.7888,1.7889,1.7889,1.7889,0,1.7787,1.7775,1.7804,1.7797,1.7785,1.7809,1.7795,1.7806,1.7816,1.7812,1.7838,1.7833,1.786,1.7858,1.7874,1.7863,1.7864,1.7871,1.7875,1.7867,1.7866,1.7867,1.787,1.7887,1.7887,1.7888,1.7888,0,1.7729,1.7749,1.7739,1.7758,1.7762,1.7751,1.7767,1.7761,1.7775,1.7769,1.7769,1.7791,1.779,1.781,1.7813,1.7824,1.7805,1.7815,1.7801,1.7803,1.7781,1.7782,1.771,1.7701,1.7779,1.7778,1.7777,0,1.7698,1.7689,1.7706,1.7705,1.7711,1.7709,1.771,1.7733,1.7733,1.7744,1.7736,1.7737,1.7739,1.7736,1.7751,1.7753,1.7763,1.7737,1.7763,1.7755,1.776,1.7759,1.7758,1.7731,1.773,1.7729,1.7729,0,1.7639,1.7648,1.7649,1.7652,1.7652,1.7656,1.7661,1.7659,1.7684,1.7683,1.7681,1.7682,1.7685,1.7685,1.769,1.7697,1.7716,1.7721,1.7716,1.7707,1.7699,1.7701,1.7784,1.7722,1.7723,1.7723,1.7724,1.7724,1.7592,1.7585,1.7595,1.7594,1.7601,1.7605,1.7599,1.7612,1.7611,1.7615,1.7629,1.7624,1.7634,1.7642,1.7648,1.7645,1.7657,1.765,1.7648,1.7646,1.7641,1.77,1.7646,1.7646,1.7646,1.7646,1.7647,0,1.7533,1.754,1.7539,1.7545,1.7544,1.7563,1.7569,1.7567,1.7562,1.757,1.757,1.7568,1.7568,1.7583,1.7584,1.7578,1.7587,1.7577,1.7577,1.7578,1.7631,1.7634,1.757,1.757,1.757,1.757,1.757,1.757,1.7502,1.7489,1.75,1.7491,1.7499,1.7494,1.7496,1.75,1.7505,1.7501,1.75,1.751,1.752,1.7522,1.7522,1.7527,1.7525,1.7512,1.7519,1.7568,1.7575,1.7582,1.7585,1.7512,1.7512,1.7467,1.7467,1.7466]}]]